Main page
Satellite images Climate Cyclones Lightning AirportsFAQ Languages Contact Newsletter About
Weather : Europe Africa North America South America Asia Australia-Oceania Others

kota-bharu-my, Kota Bharu, Sultan Ismail Petra Airport

48615

latitude: , longitude: Malaysia, elevation: 06-10N m


METAR: WMKC 240500Z 07009KT 030V160 9999 FEW017CB SCT140 BKN280 33/25 Q1008